Location: Newark
(42.8481°N, 0.4872°E)
Time: 18:31:39
(UTC+00:00)

Vanguard 3 - Pass Details

Date: 03 November 2020
Orbit: 508 x 3262 km, 33.3° (Epoch: 24 November)

Event Time Altitude Azimuth Distance (km) Brightness Sun altitude
Rises 03:51:15 0° 233° (SW) 5,366 - -30.4°
Reaches altitude 10° 03:54:24 10° 228° (SW) 4,685 - -29.8°
Exits shadow 03:58:37 25° 218° (SW) 3,939 10.2 -29.1°
Maximum altitude 04:08:09 52° 157° (SSE) 3,408 10.2 -27.3°
Drops below altitude 10° 04:26:49 10° 90° (E) 6,196 12.7 -23.9°
Sets 04:31:44 0° 86° (E) 7,146 13.4 -23.0°
